Home   Weather   Guiyang   Past weeks
Flag for China

Past Weather in Guiyang, Guizhou, China — Yesterday and Last 2 Weeks

Now
75 °F

Scattered clouds.


Feels Like: 76 °F
Forecast: 83 / 69 °F
Wind: 3 mph from South

Location: Guiyang Airport

Current Time: Jul 24, 2019 at 10:39:01 am

Latest Report: Jul 24, 2019 at 9:00 am


Visibility: N/A

Pressure: 29.86 "Hg (26.41 "Hg at 1067m altitude)

Humidity: 78%

Dew Point: 68 °F

Location of GuiyangLocation

Past Weather in Guiyang — Graph

°F

Guiyang Temperature Yesterday

Maximum temperature yesterday: 84 °F (at 12:00 pm)
Minimum temperature yesterday: 72 °F (at 8:00 pm)
Average temperature yesterday: 75 °F

High & Low Weather Summary for the Past Weeks

 TemperatureHumidityPressure
High90 °F (Jul 17, 3:00 pm)100% (Jul 10, 12:00 am)29.86 "Hg (Jul 10, 12:00 am)
Low63 °F (Jul 10, 5:00 am)49% (Jul 17, 3:00 pm)29.68 "Hg (Jul 22, 5:00 pm)
Average74 °F83%29.79 "Hg
* Reported Jul 9 9:00 am — Jul 24 9:00 am, Guiyang. Weather by CustomWeather, © 2019

Note: Actual official high and low records may vary slightly from our data, if they occured in-between our weather recording intervals... More about our weather records

Advertising

Guiyang Weather History for the Previous 24 Hours

Scroll right to see more
 ConditionsComfort  
Time TempWeatherWind HumidityBarometerVisibility
9:00 am
Wed, Jul 24
75 °FScattered clouds.3 mph78%29.86 "HgN/A
8:00 am73 °FScattered clouds.3 mph83%29.86 "HgN/A
7:00 am70 °FPartly sunny.3 mph94%29.83 "HgN/A
6:00 am70 °FPassing clouds.1 mph94%29.83 "HgN/A
5:00 am70 °FPassing clouds.1 mph94%29.80 "HgN/A
4:00 am70 °FPassing clouds.1 mph100%29.80 "HgN/A
3:00 am70 °FPassing clouds.1 mph100%29.83 "HgN/A
2:00 am72 °FLight rain. Passing clouds.3 mph94%29.83 "HgN/A
1:00 am70 °FSprinkles. Passing clouds.3 mph100%29.83 "HgN/A
12:00 am72 °FSprinkles. Overcast.3 mph94%29.86 "Hg5 mi
11:00 pm
Tue, Jul 23
72 °FMostly cloudy.1 mph94%29.83 "HgN/A
10:00 pm72 °FOvercast.1 mph94%29.83 "HgN/A
9:00 pm73 °FSprinkles. Mostly cloudy.1 mph89%29.80 "HgN/A
8:00 pm72 °FSprinkles. Overcast.1 mph94%29.77 "HgN/A
7:00 pm75 °FThunderstorms. Overcast.3 mph83%29.74 "HgN/A
6:00 pm75 °FThunderstorms. Overcast.3 mph89%29.74 "HgN/A
5:00 pm77 °FScattered clouds.3 mph83%29.71 "HgN/A
4:00 pm73 °FSprinkles. Scattered clouds.1 mph89%29.71 "HgN/A
3:00 pm75 °FThunderstorms. Scattered clouds.8 mph89%29.74 "HgN/A
2:00 pm77 °FRain showers. Scattered clouds.8 mph83%29.77 "HgN/A
1:00 pm84 °FPartly sunny.6 mph62%29.77 "HgN/A
12:00 pm84 °FBroken clouds.8 mph62%29.80 "HgN/A
11:00 am79 °FBroken clouds.6 mph74%29.83 "HgN/A
10:00 am77 °FBroken clouds.10 mph79%29.80 "HgN/A
Weather by CustomWeather, © 2019

See weather overview